This is the latest recevied weather packets stored in our database for station/object F4ELU-13. If no packets are shown the sender has not sent any weather packets the latest 1 day(s).
| Time | Temp. | Humidity | Pressure | Rain* | Wind** | Luminosity | Snow |
|---|---|---|---|---|---|---|---|
| 1777956303 | 11.67° C | 99% | 1008.7 hPa | 1.52 mm | 0 m/s | - | - |
| 1777955763 | 11.67° C | 99% | 1008.6 hPa | 1.27 mm | 0 m/s | - | - |
| 1777955223 | 11.67° C | 99% | 1008.7 hPa | 1.02 mm | 0 m/s | - | - |
| 1777954683 | 11.67° C | 99% | 1008.7 hPa | 1.02 mm | 0 m/s | - | - |
| 1777954143 | 11.67° C | 99% | 1008.6 hPa | 1.27 mm | 0 m/s | - | - |
| 1777953603 | 11.67° C | 99% | 1008.9 hPa | 1.02 mm | 0 m/s | - | - |
| 1777953243 | 11.67° C | 99% | 1009.1 hPa | 1.02 mm | 0 m/s | - | - |
| 1777952703 | 11.67° C | 99% | 1009 hPa | 0.51 mm | 0 m/s | - | - |
| 1777952163 | 11.67° C | 99% | 1009 hPa | 1.02 mm | 0 m/s | - | - |
| 1777951623 | 11.67° C | 99% | 1009.1 hPa | 0.51 mm | 0 m/s | - | - |
| 1777951083 | 11.67° C | 99% | 1009.1 hPa | 0.51 mm | 0 m/s | - | - |
| 1777950543 | 11.11° C | 99% | 1009.2 hPa | 0.25 mm | 0 m/s | - | - |
| 1777950003 | 11.11° C | 99% | 1009.2 hPa | 0.25 mm | 0 m/s | - | - |
| 1777949643 | 11.11° C | 99% | 1009.3 hPa | 0.25 mm | 0 m/s | - | - |
| 1777949103 | 11.11° C | 99% | 1009.3 hPa | 0.25 mm | 0 m/s | - | - |
| 1777948563 | 11.11° C | 99% | 1009.3 hPa | 0 mm | 0 m/s | - | - |
| 1777948023 | 11.11° C | 99% | 1009.2 hPa | 0 mm | 0 m/s | - | - |
| 1777947483 | 11.67° C | 99% | 1009.3 hPa | 0.25 mm | 0 m/s | - | - |
| 1777946943 | 11.67° C | 99% | 1009.1 hPa | 0.25 mm | 0 m/s | - | - |
| 1777946403 | 11.67° C | 99% | 1009.3 hPa | 0.25 mm | 0 m/s | - | - |
| 1777946043 | 11.67° C | 99% | 1009.2 hPa | 0.25 mm | 0 m/s | - | - |
| 1777945503 | 11.67° C | 99% | 1009.3 hPa | 0.25 mm | 0 m/s | - | - |
* Rain latest hour (hover to see other rain measurements)
** Current wind speed in m/s (hover to see current wind gust speed)